[Iaude] MPEC S39: 2016 SG

mpec at si.edu mpec at si.edu
Thu Sep 29 16:08:20 EDT 2016


M.P.E.C. 2016-S39                                Issued 2016 Sept. 24, 18:48 UT
 
     The Minor Planet Electronic Circulars contain information on unusual
         minor planets and routine data on comets.  They are published
    on behalf of Division F of the International Astronomical Union by the
          Minor Planet Center, Smithsonian Astrophysical Observatory,
                          Cambridge, MA 02138, U.S.A.

             Prepared using the Tamkin Foundation Computer Network

                              MPC at CFA.HARVARD.EDU
            URL http://www.minorplanetcenter.net/    ISSN 1523-6714


                                    2016 SG
 
Observations:
     K16S00G* C2016 09 22.24147 23 51 26.00 -05 34 22.6          19.9 VqES039G96
     K16S00G  C2016 09 22.24578 23 51 24.91 -05 34 03.2          20.2 VqES039G96
     K16S00G  C2016 09 22.25010 23 51 23.73 -05 33 44.4          19.9 VqES039G96
     K16S00G  C2016 09 22.25446 23 51 22.53 -05 33 24.5          20.3 VqES039G96
     K16S00G  C2016 09 22.31648 23 51 05.47 -05 28 40.0          20.1 VqES039G96
     K16S00G  C2016 09 22.32176 23 51 03.96 -05 28 15.2          20.3 VqES039G96
     K16S00G  C2016 09 22.32704 23 51 02.50 -05 27 50.7          20.2 VqES039G96
     K16S00G  C2016 09 22.33133 23 51 01.30 -05 27 30.6          20.1 VqES039G96
     K16S00G KC2016 09 23.14999 23 47 44.82 -04 11 07.4          19.9 RqES039H36
     K16S00G KC2016 09 23.15956 23 47 41.31 -04 10 04.0          19.6 RqES039H36
     K16S00G KC2016 09 23.16909 23 47 37.78 -04 08 58.4          19.9 RqES039H36
     K16S00G KC2016 09 23.17861 23 47 34.25 -04 07 54.9          19.5 RqES039H36
     K16S00G  C2016 09 23.18444 23 47 35.58 -04 06 49.1          19.8 RoES039926
     K16S00G  C2016 09 23.18892 23 47 33.92 -04 06 18.4          19.8 RoES039926
     K16S00G  C2016 09 23.19343 23 47 32.23 -04 05 47.8          19.7 RoES039926
     K16S00G "C2016 09 23.34857123 46 28.75 -03 47 23.5          19.2 RtES039705
     K16S00G "C2016 09 23.34963023 46 28.28 -03 47 14.8          19.4 RtES039705
     K16S00G "C2016 09 23.35064823 46 27.93 -03 47 08.7          19.6 RtES039705
     K16S00G KC2016 09 23.84015 23 43 37.82 -02 38 44.3                qES039J95
     K16S00G KC2016 09 23.84746 23 43 34.32 -02 37 33.7          19.0 RqES039J95
     K16S00G KC2016 09 24.17136 23 40 57.70 -01 38 47.7          19.0 RqES039H36
     K16S00G KC2016 09 24.17658 23 40 54.42 -01 37 45.7          19.3 RqES039H36
     K16S00G KC2016 09 24.18180 23 40 51.25 -01 36 44.0          19.1 RqES039H36
 
Observer details:
705 Apache Point.  Observers K. Nault, M. Hammergren, M. Brucker.  Measurer
    K. Nault.  3.5-m f/10 reflector + CCD.
926 Tenagra II Observatory.  Observers M. Schwartz, P. R. Holvorcem.  Measurer
    M. Schwartz.  0.81-m f/7 Ritchey-Chretien + CCD.
G96 Mt. Lemmon Survey.  Observer R. A. Kowalski.  Measurers E. J. Christensen,
    D. C. Fuls, A. R. Gibbs, A. D. Grauer, J. A. Johnson, R. A. Kowalski,
    S. M. Larson, G. J. Leonard, R. G. Matheny, R. L. Seaman, F. C. Shelly.
    1.5-m reflector + 10K CCD.
H36 Sandlot Observatory, Scranton.  Observer G. Hug.  0.56-m reflector + CCD.
J95 Great Shefford.  Observer P. Birtwhistle.  0.40-m f/6.0 Schmidt-Cassegrain
    + CCD.
 
Orbital elements:
2016 SG                                                  Earth MOID = 0.0058 AU
Epoch 2016 July 31.0 TT = JDT 2457600.5                 MPC
M 314.83750              (2000.0)            P               Q
n   0.42662850     Peri.   79.15525     +0.17059378     -0.98533968
a   1.7475763      Node     1.02795     +0.85857964     +0.14771882
e   0.5866558      Incl.    5.96397     +0.48346537     +0.08535140
P   2.31           H   26.5           G   0.15           U   6
Residuals in seconds of arc
160922 G96  0.3-  0.2+    160923 H36  0.2+  0.2+    160923 705  0.4-  0.4+
160922 G96  0.7+  0.3+    160923 H36  0.2-  0.6-    160923 705  0.7+  1.2-
160922 G96  0.4+  0.3-    160923 H36  0.4-  0.8+    160923 J95  0.1+  0.0
160922 G96  0.0   0.1-    160923 H36  0.2-  0.2-    160923 J95  0.1-  0.2-
160922 G96  0.2+  0.0     160923 926  0.3-  0.3+    160924 H36  0.2+  0.3+
160922 G96  0.3-  0.1+    160923 926  0.2-  0.5+    160924 H36  0.6-  0.4+
160922 G96  0.1-  0.1-    160923 926  0.2-  0.3+    160924 H36  0.6+  0.1-
160922 G96  0.1-  0.1-    160923 705  0.1+  0.4-

Ephemeris:
2016 SG                  a,e,i = 1.75, 0.59, 6                   q = 0.7224
Date    TT    R. A. (2000) Decl.     Delta      r     Elong.  Phase     V
2016 08 25    00 00 48.1 -10 18 10   0.3275  1.3135   154.2    19.5    25.7
...
2016 09 09    00 02 57.7 -09 52 20   0.1705  1.1735   166.2    11.8    23.7
...
2016 09 17    23 59 59.2 -08 42 43   0.09397 1.0981   171.7     7.6    22.1
...
2016 09 23    23 48 21.4 -04 24 56   0.03875 1.0420   174.6     5.2    20.0
2016 09 24    23 42 16.6 -02 07 54   0.02974 1.0327   173.9     5.9    19.4
2016 09 25    23 31 01.2 +02 07 00   0.02087 1.0235   170.7     9.1    18.8
...
2016 10 01    12 31 42.3 +19 43 18   0.03528 0.9688    22.9   156.3    29.0
...
2016 10 09    12 15 59.3 +13 56 19   0.1090  0.8994    22.8   154.5    30.8
...
2016 10 24    12 17 25.6 +10 34 45   0.2593  0.7895    32.9   136.8    29.5

A. U. Tomatic                (C) Copyright 2016 MPC           M.P.E.C. 2016-S39




More information about the Iaude mailing list